Simultaneous Nadir Overpasses (SNOs) Predictions

Prediction of SNOs between TERRA and METOP-C Satellite Orbit:

Table of predicted SNOs for the next 14.0 days since TLE Epoch: 9/17/2022
Index Date (TERRA) Time (TERRA) Lat,Lon (TERRA) SZA (TERRA ) Date (METOP-C) Time (METOP-C) Lat,Lon (METOP-C) SZA (METOP-C ) Distance(km) Time Diff (sec)
1 09/19/2022 01:48:26 81.14,-167.48 81.77 09/19/2022 01:47:14 81.14,-167.32 81.76 2.72 72
2 09/19/2022 02:37:52 -81.16, 0.46 98.17 09/19/2022 02:37:53 -81.16, 0.49 98.17 0.61 1
3 09/21/2022 21:22:34 81.12,-101.34 82.84 09/21/2022 21:21:34 81.13,-101.40 82.81 1.21 60
4 09/21/2022 22:12:00 -81.15, 66.63 97.10 09/21/2022 22:12:13 -81.15, 66.47 97.11 2.64 13
5 09/24/2022 16:56:41 81.15, -34.58 84.00 09/24/2022 16:55:52 81.15, -34.40 84.00 3.09 49
6 09/24/2022 17:46:07 -81.17, 133.40 95.94 09/24/2022 17:46:31 -81.17, 133.55 95.91 2.48 24
7 09/27/2022 12:30:49 81.14, 31.71 85.09 09/27/2022 12:30:12 81.14, 31.82 85.09 1.87 37
8 09/27/2022 13:20:15 -81.16,-160.29 94.85 09/27/2022 13:20:51 -81.16,-160.16 94.81 2.21 36
9 09/30/2022 08:04:55 81.14, 98.26 86.22 09/30/2022 08:04:30 81.15, 98.37 86.22 1.91 25



Historial Predications of SNOs between TERRA and METOP-C
